• In Spain
  • List of Countries
  • For 7 days
  • Water Temperature
  • Satellite Maps
  • Weather Map
  • Weather Widgets
  • user-avatar
    Login

    Hourly Weather Vozhovo

    Today, 23 July, Monday

    Time Temperature Precipitation Wind Pressure Humidity
    00:00 +19°C° 0 mm 3 mps 738 mmHg 96%
    01:00 +19°C° 0 mm 3 mps 738 mmHg 96%
    02:00 +18°C° 0 mm 3 mps 738 mmHg 97%
    03:00 +18°C° 0 mm 4 mps 738 mmHg 97%
    04:00 +19°C° 0 mm 4 mps 738 mmHg 96%
    05:00 +19°C° 0 mm 5 mps 738 mmHg 96%
    06:00 +19°C° 0.1 mm 4 mps 738 mmHg 95%
    07:00 +20°C° 0.1 mm 4 mps 738 mmHg 94%
    08:00 +20°C° 0.1 mm 4 mps 738 mmHg 92%
    09:00 +20°C° 0.1 mm 4 mps 738 mmHg 91%
    10:00 +21°C° 0.1 mm 4 mps 738 mmHg 89%
    11:00 +22°C° 0.1 mm 4 mps 738 mmHg 88%
    12:00 +22°C° 0.2 mm 5 mps 738 mmHg 86%
    13:00 +23°C° 0.2 mm 5 mps 738 mmHg 84%
    14:00 +23°C° 0.2 mm 5 mps 738 mmHg 82%
    15:00 +23°C° 0.3 mm 5 mps 738 mmHg 83%
    16:00 +23°C° 0.3 mm 5 mps 738 mmHg 84%
    17:00 +23°C° 0.3 mm 5 mps 738 mmHg 85%
    18:00 +22°C° 0.6 mm 4 mps 738 mmHg 88%
    19:00 +21°C° 0.6 mm 4 mps 738 mmHg 91%
    20:00 +21°C° 0.6 mm 4 mps 739 mmHg 94%
    21:00 +20°C° 1 mm 3 mps 739 mmHg 94%
    22:00 +20°C° 1 mm 3 mps 739 mmHg 95%
    23:00 +20°C° 1 mm 3 mps 739 mmHg 96%

    Tomorrow, 24 July, Tuesday

    Time Temperature Precipitation Wind Pressure Humidity
    00:00 +19°C° 0.1 mm 2 mps 739 mmHg 96%
    01:00 +19°C° 0.1 mm 2 mps 739 mmHg 96%
    02:00 +19°C° 0.1 mm 2 mps 739 mmHg 96%
    03:00 +19°C° 0 mm 2 mps 739 mmHg 95%
    04:00 +19°C° 0 mm 2 mps 739 mmHg 95%
    05:00 +19°C° 0 mm 2 mps 740 mmHg 95%
    06:00 +21°C° 0.1 mm 2 mps 740 mmHg 90%
    07:00 +23°C° 0.1 mm 2 mps 740 mmHg 86%
    08:00 +25°C° 0.1 mm 3 mps 740 mmHg 81%
    09:00 +26°C° 0.7 mm 3 mps 741 mmHg 76%
    10:00 +27°C° 0.7 mm 3 mps 741 mmHg 71%
    11:00 +28°C° 0.7 mm 3 mps 741 mmHg 66%
    12:00 +28°C° 0.7 mm 3 mps 741 mmHg 66%
    13:00 +28°C° 0.7 mm 3 mps 741 mmHg 65%
    14:00 +29°C° 0.7 mm 3 mps 741 mmHg 64%
    15:00 +29°C° 0.4 mm 3 mps 741 mmHg 67%
    16:00 +28°C° 0.4 mm 2 mps 741 mmHg 71%
    17:00 +28°C° 0.4 mm 2 mps 741 mmHg 74%
    18:00 +26°C° 0.4 mm 2 mps 742 mmHg 78%
    19:00 +25°C° 0.4 mm 2 mps 742 mmHg 82%
    20:00 +22°C° 0.4 mm 3 mps 742 mmHg 86%
    21:00 +21°C° 0.1 mm 3 mps 742 mmHg 89%
    22:00 +21°C° 0.1 mm 3 mps 742 mmHg 91%
    23:00 +20°C° 0.1 mm 3 mps 742 mmHg 93%

    Day after tomorrow, 25 July, Wednesday

    Time Temperature Precipitation Wind Pressure Humidity
    00:00 +20°C° 0 mm 3 mps 743 mmHg 94%
    01:00 +20°C° 0 mm 3 mps 743 mmHg 94%
    02:00 +20°C° 0 mm 3 mps 743 mmHg 95%
    03:00 +20°C° 0.1 mm 3 mps 743 mmHg 95%
    04:00 +20°C° 0.1 mm 3 mps 743 mmHg 95%
    05:00 +20°C° 0.1 mm 3 mps 743 mmHg 94%
    06:00 +21°C° 0.1 mm 3 mps 743 mmHg 90%
    07:00 +21°C° 0.1 mm 4 mps 743 mmHg 87%
    08:00 +22°C° 0.1 mm 5 mps 743 mmHg 83%
    09:00 +22°C° 0.2 mm 5 mps 743 mmHg 81%
    10:00 +22°C° 0.2 mm 6 mps 743 mmHg 79%
    11:00 +22°C° 0.2 mm 7 mps 743 mmHg 78%
    12:00 +22°C° 0.3 mm 7 mps 743 mmHg 82%
    13:00 +21°C° 0.3 mm 6 mps 742 mmHg 85%
    14:00 +20°C° 0.3 mm 6 mps 742 mmHg 89%
    15:00 +21°C° 0.7 mm 6 mps 742 mmHg 89%
    16:00 +22°C° 0.7 mm 6 mps 742 mmHg 89%
    17:00 +22°C° 0.7 mm 6 mps 742 mmHg 89%
    18:00 +22°C° 0.3 mm 6 mps 742 mmHg 89%
    19:00 +21°C° 0.3 mm 5 mps 742 mmHg 90%
    20:00 +21°C° 0.3 mm 5 mps 743 mmHg 91%
    21:00 +21°C° 0 mm 5 mps 743 mmHg 92%
    22:00 +20°C° 0 mm 4 mps 743 mmHg 93%
    23:00 +20°C° 0 mm 4 mps 743 mmHg 94%

    26 July, Thursday

    Time Temperature Precipitation Wind Pressure Humidity
    00:00 +20°C° 0 mm 3 mps 743 mmHg 94%
    01:00 +19°C° 0 mm 3 mps 743 mmHg 94%
    02:00 +19°C° 0 mm 3 mps 743 mmHg 93%
    03:00 +19°C° 0 mm 3 mps 743 mmHg 93%
    04:00 +19°C° 0 mm 3 mps 743 mmHg 93%
    05:00 +19°C° 0 mm 3 mps 744 mmHg 92%
    06:00 +20°C° 0.3 mm 3 mps 744 mmHg 90%
    07:00 +20°C° 0.3 mm 4 mps 744 mmHg 88%
    08:00 +21°C° 0.3 mm 4 mps 744 mmHg 85%
    09:00 +22°C° 0.1 mm 4 mps 744 mmHg 81%
    10:00 +25°C° 0.1 mm 5 mps 745 mmHg 77%
    11:00 +26°C° 0.1 mm 5 mps 745 mmHg 72%
    12:00 +27°C° 0 mm 5 mps 745 mmHg 69%
    13:00 +28°C° 0 mm 5 mps 745 mmHg 67%
    14:00 +29°C° 0 mm 5 mps 745 mmHg 64%
    15:00 +29°C° 0 mm 5 mps 745 mmHg 67%
    16:00 +28°C° 0 mm 5 mps 745 mmHg 71%
    17:00 +28°C° 0 mm 4 mps 745 mmHg 74%
    18:00 +27°C° 0.1 mm 4 mps 745 mmHg 78%
    19:00 +25°C° 0.1 mm 4 mps 745 mmHg 82%
    20:00 +23°C° 0.1 mm 4 mps 746 mmHg 85%
    21:00 +23°C° 0.4 mm 4 mps 746 mmHg 85%
    22:00 +22°C° 0.4 mm 3 mps 746 mmHg 85%
    23:00 +21°C° 0.4 mm 3 mps 746 mmHg 85%

    27 July, Friday

    Time Temperature Precipitation Wind Pressure Humidity
    00:00 +21°C° 0.4 mm 3 mps 746 mmHg 86%
    01:00 +20°C° 0.4 mm 4 mps 746 mmHg 88%
    02:00 +20°C° 0.4 mm 4 mps 746 mmHg 89%
    03:00 +20°C° 0.4 mm 4 mps 746 mmHg 89%
    04:00 +20°C° 0.4 mm 4 mps 746 mmHg 89%
    05:00 +20°C° 0.4 mm 5 mps 747 mmHg 89%
    06:00 +21°C° 0 mm 5 mps 747 mmHg 85%
    07:00 +22°C° 0 mm 6 mps 747 mmHg 82%
    08:00 +23°C° 0 mm 6 mps 747 mmHg 78%
    09:00 +24°C° 0 mm 6 mps 747 mmHg 75%
    10:00 +26°C° 0 mm 6 mps 747 mmHg 72%
    11:00 +27°C° 0 mm 6 mps 748 mmHg 69%
    12:00 +28°C° 0.1 mm 6 mps 747 mmHg 67%
    13:00 +28°C° 0.1 mm 7 mps 747 mmHg 66%
    14:00 +29°C° 0.1 mm 7 mps 747 mmHg 65%
    15:00 +29°C° 0.1 mm 6 mps 747 mmHg 68%
    16:00 +28°C° 0.1 mm 5 mps 748 mmHg 72%
    17:00 +28°C° 0.1 mm 4 mps 748 mmHg 75%
    18:00 +26°C° 0 mm 4 mps 748 mmHg 78%
    19:00 +25°C° 0 mm 4 mps 748 mmHg 80%
    20:00 +23°C° 0 mm 4 mps 748 mmHg 83%
    21:00 +22°C° 0 mm 3 mps 748 mmHg 82%
    22:00 +22°C° 0 mm 3 mps 748 mmHg 80%
    23:00 +21°C° 0 mm 3 mps 748 mmHg 79%

    28 July, Saturday

    Time Temperature Precipitation Wind Pressure Humidity
    00:00 +21°C° 0 mm 3 mps 748 mmHg 81%
    01:00 +21°C° 0 mm 3 mps 748 mmHg 83%
    02:00 +21°C° 0 mm 3 mps 748 mmHg 85%
    03:00 +20°C° 0 mm 3 mps 748 mmHg 85%
    04:00 +20°C° 0 mm 3 mps 748 mmHg 85%
    05:00 +20°C° 0 mm 3 mps 748 mmHg 85%
    06:00 +21°C° 0 mm 3 mps 748 mmHg 82%
    07:00 +23°C° 0 mm 4 mps 748 mmHg 79%
    08:00 +25°C° 0 mm 4 mps 748 mmHg 76%
    09:00 +26°C° 0.5 mm 4 mps 748 mmHg 74%
    10:00 +26°C° 0.5 mm 4 mps 748 mmHg 72%
    11:00 +27°C° 0.5 mm 4 mps 748 mmHg 70%
    12:00 +27°C° 0.1 mm 4 mps 748 mmHg 70%
    13:00 +27°C° 0.1 mm 4 mps 748 mmHg 71%
    14:00 +27°C° 0.1 mm 4 mps 748 mmHg 71%
    15:00 +28°C° 0 mm 3 mps 748 mmHg 71%
    16:00 +28°C° 0 mm 3 mps 748 mmHg 70%
    17:00 +28°C° 0 mm 3 mps 748 mmHg 70%
    18:00 +27°C° 0 mm 3 mps 748 mmHg 74%
    19:00 +25°C° 0 mm 3 mps 748 mmHg 78%
    20:00 +24°C° 0 mm 3 mps 748 mmHg 82%
    21:00 +22°C° 0 mm 3 mps 748 mmHg 84%
    22:00 +21°C° 0 mm 3 mps 748 mmHg 85%
    23:00 +21°C° 0 mm 3 mps 748 mmHg 86%
    Show more